DW8022 Weather Reports


time (UTC)temp
F
wind
direction
speed
knots
gust
knots
rain 1hr
in
rain 24hr
in
rain mn
in
humidity
%
barometer
mb
20260509024141 73 101 0.9 6.1 0.00 0.00 0.00 50 1022.1
20260509022622 75 69 1.7 4.3 0.00 0.00 0.00 49 1022.2
20260509021124 77 145 1.7 6.1 0.00 0.00 0.00 45 1022.5
20260509020321 74 317 0.9 6.1 0.00 0.00 0.00 49 1022.5
20260509014803 76 92 1.7 7.0 0.00 0.00 0.00 47 1022.7
20260509014003 74 16 0.9 4.3 0.00 0.00 0.00 53 1023.0
20260509011809 74 92 1.7 6.1 0.00 0.00 0.00 50 1023.0
20260509005550 75 68 1.7 5.2 0.00 0.00 0.00 53 1023.2
20260509004028 74 194 1.7 7.8 0.00 0.00 0.00 54 1023.1
20260509001022 72 207 2.6 7.0 0.00 0.00 0.00 55 1023.2
20260508235508 70 264 0.9 4.3 0.00 0.00 0.00 59 1023.1
20260508233956 67 30 1.7 3.5 0.00 0.00 0.00 69 1023.1
20260508232502 64 11 0.0 1.7 0.00 0.00 0.00 73 1022.9
20260508231000 62 309 0.9 1.7 0.00 0.00 0.00 76 1023.1
20260508225455 60 11 0.0 1.7 0.00 0.00 0.00 77 1022.8
20260508224657 59 294 0.0 0.0 0.00 0.00 0.00 78 1022.7
20260508222453 56 294 0.0 0.0 0.00 0.00 0.00 83 1022.9
20260508215501 51 294 0.0 0.0 0.00 0.00 0.00 90 1022.5
20260508213948 50 294 0.0 0.0 0.00 0.00 0.00 91 1022.2
20260508212450 49 294 0.0 0.9 0.00 0.00 0.00 91 1022.0
20260508211623 48 294 0.0 0.0 0.00 0.00 0.00 91 1021.8
20260508205423 47 294 0.0 0.0 0.00 0.00 0.00 89 1021.7
20260508203914 47 294 0.0 0.9 0.00 0.00 0.00 89 1021.7
20260508202423 47 294 0.0 0.0 0.00 0.00 0.00 89 1021.4
20260508201634 47 294 0.0 0.9 0.00 0.00 0.00 89 1021.2
20260508194547 47 182 0.0 0.9 0.00 0.00 0.00 88 1020.7
20260508192349 47 182 0.0 0.0 0.00 0.00 0.00 88 1020.7
20260508185340 47 182 0.0 0.0 0.00 0.00 0.00 88 1020.6
20260508184530 47 182 0.0 0.0 0.00 0.00 0.00 88 1020.5
20260508182328 46 182 0.0 1.7 0.00 0.00 0.00 88 1020.4
20260508180751 46 182 0.0 0.0 0.00 0.00 0.00 87 1020.4
20260508173751 46 182 0.0 0.0 0.00 0.00 0.00 87 1020.5
20260508172230 46 182 0.0 0.0 0.00 0.00 0.00 86 1020.3
20260508171406 46 182 0.0 0.0 0.00 0.00 0.00 86 1020.1
20260508165209 46 182 0.0 0.0 0.00 0.00 0.00 86 1019.9
20260508163711 46 182 0.0 0.0 0.00 0.00 0.00 86 1020.0
20260508162220 46 182 0.0 0.0 0.00 0.00 0.00 85 1020.0
20260508160655 46 182 0.0 1.7 0.00 0.00 0.00 85 1020.2
20260508155146 47 182 0.0 0.0 0.00 0.00 0.00 85 1020.2
20260508153652 47 182 0.0 0.0 0.00 0.00 0.00 84 1019.9
20260508150629 47 182 0.0 0.9 0.00 0.00 0.00 84 1020.1
20260508145130 47 182 0.0 0.0 0.00 0.00 0.00 83 1020.1
20260508144338 47 182 0.0 0.9 0.00 0.00 0.00 83 1020.0
20260508142039 48 182 0.0 0.9 0.00 0.00 0.00 83 1020.0
20260508140544 48 182 0.0 0.0 0.00 0.00 0.00 81 1020.1
20260508135021 48 182 0.0 0.0 0.00 0.00 0.00 81 1019.8
20260508133516 49 182 0.0 0.0 0.00 0.00 0.00 80 1019.8
20260508132014 49 182 0.0 0.0 0.00 0.00 0.00 79 1019.6
20260508130522 49 182 0.0 1.7 0.00 0.00 0.00 78 1019.6
20260508125011 50 182 0.0 1.7 0.00 0.00 0.00 77 1019.5
20260508123518 50 182 0.0 1.7 0.00 0.00 0.00 75 1019.5
20260508122014 51 182 0.0 0.0 0.00 0.00 0.00 73 1019.6
20260508120502 51 182 0.0 0.0 0.00 0.00 0.00 72 1019.6
20260508114933 52 182 0.0 0.0 0.00 0.00 0.00 71 1019.7
20260508111923 52 182 0.0 0.0 0.00 0.00 0.00 72 1019.6
20260508111128 52 182 0.0 0.0 0.00 0.00 0.00 71 1019.3
20260508103411 53 182 0.0 1.7 0.00 0.00 0.00 69 1019.5
20260508101905 53 182 0.0 1.7 0.00 0.00 0.00 69 1019.1
20260508100339 53 182 0.0 1.7 0.00 0.00 0.00 68 1019.1
20260508093340 55 274 0.0 0.0 0.00 0.00 0.00 67 1018.8
20260508091825 56 274 0.0 0.0 0.00 0.00 0.00 66 1018.7
20260508090327 56 161 0.0 0.0 0.00 0.00 0.00 64 1018.5
20260508084817 57 161 0.0 1.7 0.00 0.00 0.00 64 1018.6
20260508083305 58 161 0.0 0.0 0.00 0.00 0.00 65 1018.2
20260508081816 58 161 0.0 0.0 0.00 0.00 0.00 63 1018.0
20260508080243 60 161 0.0 0.0 0.00 0.00 0.00 62 1017.7
20260508074732 61 161 0.0 0.0 0.00 0.00 0.00 58 1017.6
20260508073225 62 161 0.0 1.7 0.00 0.00 0.00 55 1017.6
20260508071722 64 161 0.0 0.9 0.00 0.00 0.00 52 1017.4
20260508070222 66 161 0.9 1.7 0.00 0.00 0.00 50 1017.1
20260508064721 67 256 0.0 0.0 0.00 0.00 0.00 53 1017.1
20260508063235 67 256 0.0 1.7 0.00 0.00 0.00 49 1016.9
20260508061651 69 256 0.0 1.7 0.00 0.00 0.00 39 1016.8
20260508060853 70 321 0.0 0.0 0.00 0.00 0.00 38 1016.8
20260508055406 71 321 0.0 1.7 0.00 0.00 0.00 35 1016.7
20260508053127 71 321 0.0 1.7 0.00 0.00 0.00 34 1016.9
20260508050132 73 263 0.9 5.2 0.00 0.00 0.00 27 1017.2
20260508045343 74 252 0.9 6.1 0.00 0.00 0.00 28 1017.2
20260508043055 75 237 1.7 5.2 0.00 0.00 0.00 27 1016.9
20260508041602 74 310 0.9 3.5 0.00 0.00 0.00 27 1017.1
20260508040035 73 38 0.9 3.5 0.00 0.00 0.00 25 1017.2
20260508034542 74 255 1.7 5.2 0.00 0.00 0.00 26 1017.4
20260508033038 74 283 1.7 7.0 0.00 0.00 0.00 24 1017.4
20260508031509 74 242 1.7 7.0 0.00 0.00 0.00 30 1017.7
20260508025957 73 319 1.7 7.0 0.00 0.00 0.00 26 1017.9
20260508024457 72 227 1.7 4.3 0.00 0.00 0.00 30 1017.8